Погода в Майске

Погода в Майске : погода сейчас, прогноз погоды и архив. Всё, что Вы хотите узнать о погоде в Майске!

Хотите узнать прогноз погоды в Майске? Тогда Вам сюда: Погода в Майске

Поиск расширенной информации на нашем сайте:

Другие новости

Новости СМИ2

Главная страница сайта

Новости сайта

03.07.2017

Напоминаем, что на нашем специализированном сайте Метеоцентр.Азия вы можете получить высокодетализированные автоматические прогнозы погоды по пунктам России, СНГ и мира в авиационном формате (включающие направление и скорость ветра, видимость, явления погоды, количество и форму облачности, нижнюю и верхнюю границу облачности).


Погода в Майске - сегодня

Время (UTC), дата Ветер
(°,м/с) 
Видим.   Явления Облачность Т
(°С)
Тd
(°С)
f(%) Тe
(°С)
Pmin
(гПа)
dP
(гПа)
Po
(мм)
O2
(г/м3)
Тmin Tmax R s Состояние
почвы
21 21.11.17 270 (З) 20000 м    10/10 600 м 
[Sc]
+0.4 -0.4 94 +1  1026.8  0.4  761  306           
00 22.11.17 270 (З) 20000 м    10/10 600 м 
[Sc]
+0.4 -0.2 96 +1  1027.8  0.9  761  306  -1.2    29  неравномерный
мокрый или
старый снег
100% 
03 22.11.17 200 (Ю) 20000 м    10/10 600 м 
[Sc]
+0.4 -0.4 94 +1  1028.7  0.9  762  307           
06 22.11.17 200 (Ю) 20000 м    10/0 средняя 
[As trans]
+0.9 -0.8 88 +2  1028.9  0.3  762  306           
09 22.11.17 200 (Ю) 20000 м    9/0 верхняя 
[Cs]
+0.8 -2.4 79 +1  1029  762  307           
12 22.11.17 180 (Ю) 20000 м    6/0 верхняя 
[Cs]
-2 -3.8 87 -1  1028.8  -0.3  762  310    +1.2       
15 22.11.17 180 (Ю) 20000 м    3/0 верхняя 
[Cs]
-2.5 -5.4 80 -2  1028.2  -0.6  762  310           
18 22.11.17 200 (Ю) 20000 м    ясно 
-6 -7.9 86 -6  1027.7  -0.7  761  314           
21 22.11.17 180 (Ю) 20000 м    ясно 
-10 -10.8 94 -10  1028  0.2  761  319           
00 23.11.17 тихо ()   20000 м    ясно 
-11.3 -12.6 90 -11  1027.3  -0.8  761  321  -11.4      27  неравномерный
мокрый или
старый снег
100% 
03 23.11.17 тихо ()   20000 м    6/0 верхняя 
[Cc]
-14.3 -15.6 90 -14  1027.2  -0.3  760  325  -14.6         
06 23.11.17 180 (Ю) 20000 м    1/0 средняя 
[Ac trans]
-8.8 -10.3 89 -9  1027.2  0.3  761  318           
09 23.11.17 200 (Ю) 20000 м    3/0 верхняя 
[Ci fib]
-3.3 -7.6 72 -3  1026.9  761  311           
12 23.11.17 180 (Ю) 20000 м    ясно 
-13.6 -14.9 90 -14  1027.5  0.1  761  324    -3.1       
15 23.11.17 тихо ()   20000 м    ясно 
-12.6 -13.9 90 -13  1027.5  761  323           
18 23.11.17 140 (ЮВ) 20000 м    ясно 
-14.2 -15.5 90 -14  1027.1  -0.5  760  325           
21 23.11.17 140 (ЮВ) 20000 м    ясно 
-15.2 -16.5 90 -15  1026.8  -0.3  760  326           
00 24.11.17 тихо ()   20000 м    ясно 
-17.6 -18.8 90 -18  1026.8  -0.3  760  329  -17.7         
03 24.11.17 180 (Ю) 20000 м    ясно 
-11.4 -13.4 85 -11  1025.8  -0.5  759  321           
06 24.11.17 200 (Ю) 20000 м    ясно 
-2.9 -10.5 56 -2  1025.4  759  310           
09 24.11.17 230 (ЮЗ) 20000 м    ясно 
+0.4 -7.9 54 1023.3  -1.9  758  306           
12 24.11.17 180 (Ю) 20000 м    ясно 
-1.4 -6.9 66 -1  1021.6  -1.8  757  307    +0.5       
15 24.11.17 230 (ЮЗ) 20000 м    ясно 
-3 -7.6 71 -3  1020.2  -1.4  756  309           
18 24.11.17 200 (Ю) 20000 м    ясно 
-5 -9.5 71 -5  1018.3  -2.1  754  310           
21 24.11.17 230 (ЮЗ) 20000 м    ясно 
-5.9 -10.2 72 -6  1016.9  -1.3  753  311           
Время (UTC), дата Ветер
(°,м/с) 
Видим.   Явления Облачность Т
(°С)
Тd
(°С)
f(%) Тe
(°С)
Pmin
(гПа)
dP
(гПа)
Po
(мм)
O2
(г/м3)
Тmin Tmax R s Состояние
почвы

Для получения пояснительной информации подведите курсор к названию столбца.

ПОГОДА в Майске - архив

Всё, что Вы хотите узнать о погоде в Майске - удобно и подробно!

Выберите нужную дату (начиная с 1 января 2015* года) и нажмите кнопку "Найти".
Будут отображены архивные сводки погоды по пункту Майск, начиная с указанной даты.


Отображать данные в формате CSV (для использования в таблицах Excel)


Внимание! Наш архив погоды предназначен исключительно для личного некоммерческого использования в познавательных целях. Если Вам необходимы официальные справки о состоянии погоды (для производственных, юридических, коммерческих и т.п. целей), обращайтесь в органы Росгидромета.

*Примечание: данная дата относится к архиву по метеостанциям СССР (Россия, СНГ, Балтия).
Архив по метеостанциям Зарубежной Европы и Азии (кроме Китая) хранится 10 дней, по другим регионам земного шара (Китай, Африка, Америка, Австралия, Океания) - 1 день.

Майск - район местоположения метеостанции


Название, широта, долгота, высота метеостанции:
Майск 57.8°ш. 77.3°д. 100 м над ур. моря [Российская Федерация]

Дополнительная информация

В oтличие oт бoльшинства пoгoдных сайтoв мы публикуем пoдрoбную метеoинфoрмацию в детальнoм прoфессиoнальнoм фoрмате.

Характеристики температуры и влажнoсти вoздуха измеряются на высoте 2 м в тени вдали oт зданий и деревьев.
Скoрoсть ветра измеряется на высoте 10 м (на урoвне рoста челoвека скoрoсть ветра ниже в 1.5-2 раза). Если метеoстанция нахoдится в гoрoде или в лесу, тo скoрoсть ветра занижена на 2-4 м/с пo сравнению с oткрытым местoм. Скoрoсть ветра над акватoриями крупных рек и oзёр, а также на вершинах хoлмoв на 2-5 м/с выше, чем в oбычных услoвиях.
Атмoсфернoе давление в разных тoчках местнoсти мoжет значительнo oтличаться oт давления на метеoстанции, в зависимoсти oт услoвий рельефа (при пoдъёме на 10 м давление пoнижается примернo на 1 мм рт.ст.).